SCP
0 0 0 0 0 0 0 0 0 0 0 0 0 0 0 0 0 0 0 0 0 0 0 0 0 0 0 0 0 0 0 0 0 0 0 0 0 0 0 0 0 0 0 0 0 0 0 0 0
0 0 0 0 0 0 0 0 0 0 0 0 0 0 0 0 0 0 0 0 0 0 0 0 0 0 0 0 0 0 0 0 0 0 0 0 0 0 0 0 0 0 0 0 0 0 0 0 0
0 0 0 0 0 0 0 0 0 0 0 0 0 0 0 0 0 0 0 0 0 0 0 0 0 0 0 0 0 0 0 0 0 0 0 0 0 0 0 0 0 0 0 0 0 0 0 0 0
0 0 0 0 0 0 0 0 0 0 0 0 0 0 0 0 0 0 0 0 0 0 0 0 0 0 0 0 0 0 0 0 0 0 0 0 0 0 0 0 0 0 0 0 0 0 0 0 0
0 0 0 0 0 0 0 0 0 0 0 0 0 0 0 0 0 0 0 0 0 0 0 0 0 0 0 0 0 0 0 0 0 0 0 0 0 0 0 0 0 0 0 0 0 0 0 0 0
0 0 0 0 0 0 0 0 0 0 0 0 0 0 0 0 0 0 0 0 0 0 0 0 0 0 0 0 0 0 0 0 0 0 0 0 0 0 0 0 0 0 0 0 0 0 0 0 0
0 0 0 0 0 0 0 0 0 0 0 0 0 0 0 0 0 0 0 0 0 0 0 0 0 0 0 0 0 0 0 0 0 0 0 0 0 0 0 0 0 0 0 0 0 0 0 0 0
0 0 0 0 0 0 0 0 0 0 0 0 0 0 0 0 0 0 0 0 0 0 0 0 0 0 0 0 0 0 0 0 0 0 0 0 0 0 0 0 0 0 0 0 0 0 0 0 0
0 0 0 0 0 0 0 0 0 0 0 0 0 0 0 0 0 0 0 0 0 0 0 0 0 0 0 0 0 0 0 0 0 0 0 0 0 0 0 0 0 0 0 0 0 0 0 0 0
0 0 0 0 0 0 0 0 0 0 0 0 0 0 0 0 0 0 0 0 0 0 0 0 0 0 0 0 0 0 0 0 0 0 0 0 0 0 0 0 0 0 0 0 0 0 0 0 0
0 0 0 0 0 0 0 0 0 0 0 0 0 0 0 0 0 0 0 0 0 0 0 0 0 0 0 0 0 0 0 0 0 0 0 0 0 0 0 0 0 0 0 0 0 0 0 0 0
0 0 0 0 0 0 0 0 0 0 0 0 0 0 0 0 0 0 0 0 0 0 0 0 0 0 0 0 0 0 0 0 0 0 0 0 0 0 0 0 0 0 0 0 0 0 0 0 0
0 0 0 0 0 0 0 0 0 0 0 0 0 0 0 0 0 0 0 0 0 0 0 0 0 0 0 0 0 0 0 0 0 0 0 0 0 0 0 0 0 0 0 0 0 0 0 0 0
0 0 0 0 0 0 0 0 0 0 0 0 0 0 0 0 0 0 0 0 0 0 0 0 0 0 0 0 0 0 0 0 0 0 0 0 0 0 0 0 0 0 0 0 0 0 0 0 0
0 0 0 0 0 0 0 0 0 0 0 0 0 0 0 0 0 0 0 0 0 0 0 0 0 0 0 0 0 0 0 0 0 0 0 0 0 0 0 0 0 0 0 0 0 0 0 0 0
0 0 0 0 0 0 0 0 0 0 0 0 0 0 0 0 0 0 0 0 0 0 0 0 0 0 0 0 0 0 0 0 0 0 0 0 0 0 0 0 0 0 0 0 0 0 0 0 0
0 0 0 0 0 0 0 0 0 0 0 0 0 0 0 0 0 0 0 0 0 0 0 0 0 0 0 0 0 0 0 0 0 0 0 0 0 0 0 0 0 0 0 0 0 0 0 0 0
0 0 0 0 0 0 0 0 0 0 0 0 0 0 0 0 0 0 0 0 0 0 0 0 0 0 0 0 0 0 0 0 0 0 0 0 0 0 0 0 0 0 0 0 0 0 0 0 0
0 0 0 0 0 0 0 0 0 0 0 0 0 0 0 0 0 0 0 0 0 0 0 0 0 0 0 0 0 0 0 0 0 0 0 0 0 0 0 0 0 0 0 0 0 0 0 0 0
0 0 0 0 0 0 0 0 0 0 0 0 0 0 0 0 0 0 0 0 0 0 0 0 0 0 0 0 0 0 0 0 0 0 0 0 0 0 0 0 0 0 0 0 0 0 0 0 0
0 0 0 0 0 0 0 0 0 0 0 0 0 0 0 0 0 0 0 0 0 0 0 0 0 0 0 0 0 0 0 0 0 0 0 0 0 0 0 0 0 0 0 0 0 0 0 0 0
0 0 0 0 0 0 0 0 0 0 0 0 0 0 0 0 0 0 0 0 0 0 0 0 0 0 0 0 0 0 0 0 0 0 0 0 0 0 0 0 0 0 0 0 0 0 0 0 0
0 0 0 0 0 0 0 0 0 0 0 0 0 0 0 0 0 0 0 0 0 0 0 0 0 0 0 0 0 0 0 0 0 0 0 0 0 0 0 0 0 0 0 0 0 0 0 0 0
0 0 0 0 0 0 0 0 0 0 0 0 0 0 0 0 0 0 0 0 0 0 0 0 0 0 0 0 0 0 0 0 0 0 0 0 0 0 0 0 0 0 0 0 0 0 0 0 0
0 0 0 0 0 0 0 0 0 0 0 0 0 0 0 0 0 0 0 0 0 0 0 0 0 0 0 0 0 0 0 0 0 0 0 0 0 0 0 0 0 0 0 0 0 0 0 0 0
0 0 0 0 0 0 0 0 0 0 0 0 0 0 0 0 0 0 0 0 0 0 0 0 0 1 1 0 0 0 0 0 0 0 0 0 0 0 0 0 0 0 0 0 0 0 0 0 0
0 0 0 0 0 0 0 0 0 0 0 0 0 0 0 0 0 0 0 0 0 0 0 0 1 1 1 0 0 0 0 0 0 0 0 0 0 0 0 0 0 0 0 0 0 0 0 0 0
0 0 0 0 0 0 0 0 0 0 0 0 0 0 0 0 0 0 0 0 0 0 0 0 0 0 0 0 0 0 0 0 0 0 0 0 0 0 0 0 0 0 0 0 0 0 0 0 0
0 0 0 0 0 0 0 0 0 0 0 0 0 0 0 0 0 0 0 0 0 0 0 0 0 0 0 0 0 0 0 0 0 0 0 0 0 0 0 0 0 0 0 0 0 0 0 0 0
0 0 0 0 0 0 0 0 0 0 0 0 0 0 0 0 0 0 0 0 0 0 0 0 0 0 0 0 0 0 0 0 0 0 0 0 0 0 0 0 0 0 0 0 0 0 0 0 0
Wind_Speed
10 8 5 5 5 3 9 8 7 7 7 8 7 6 7 9 8 8 6 6 7 7 7 9 8 9 10 10 10 10 10 10 9 9 9 9 8 8 8 8 8 8 8 8 7 8 8 9 9
7 5 6 5 1 6 9 8 8 9 7 7 7 7 8 9 8 8 6 6 7 7 7 9 10 9 9 9 9 10 9 9 9 8 8 8 8 7 7 7 7 7 7 7 7 8 8 9 8
6 6 5 1 5 8 9 9 9 8 7 6 6 7 7 7 7 6 7 7 7 8 8 10 9 9 9 9 9 9 9 8 8 8 8 8 8 7 7 7 7 7 7 6 7 8 8 8 8
5 5 4 2 10 10 8 8 7 7 8 6 6 8 8 7 5 7 8 7 8 8 8 11 8 8 8 8 8 8 8 8 8 8 7 7 7 7 7 7 6 6 6 5 6 7 7 7 7
5 4 2 7 10 9 8 6 5 6 6 7 7 9 9 7 8 9 8 7 7 7 8 10 8 8 8 8 8 8 7 8 8 7 7 7 6 6 7 7 6 6 6 5 5 6 6 6 6
4 3 3 8 10 8 7 6 5 7 7 7 7 9 8 7 8 8 8 7 7 7 8 10 9 8 8 8 8 8 8 7 7 7 7 7 6 6 6 6 6 6 5 5 4 4 4 5 5
3 2 6 8 8 8 7 5 5 7 7 6 5 8 8 8 7 8 8 7 7 7 7 7 8 9 9 8 7 7 7 6 6 6 6 6 6 5 5 5 5 4 4 4 3 2 2 4 4
4 1 5 6 7 8 6 5 6 6 7 6 3 5 8 8 8 8 8 7 7 6 5 5 6 7 7 8 9 7 6 6 5 5 5 4 4 5 4 4 5 3 3 3 2 1 1 3 3
4 0 6 7 6 7 5 6 6 5 7 6 5 7 9 11 9 8 8 7 7 6 4 4 5 6 5 6 8 7 6 5 4 4 4 2 1 3 3 4 4 2 2 2 2 1 0 3 6
2 4 8 7 6 5 5 4 5 5 7 7 8 8 10 10 9 8 7 7 7 6 5 3 3 4 4 4 4 3 3 4 2 2 2 1 2 1 1 4 2 1 1 2 1 1 3 5 3
2 5 6 6 6 4 4 5 4 4 5 5 7 10 10 10 8 7 7 6 6 6 5 4 3 3 3 3 2 2 2 2 3 3 2 2 1 1 1 1 2 2 3 2 3 3 1 1 1
3 4 4 4 4 3 4 5 5 4 5 6 7 10 11 9 8 6 6 6 5 5 4 3 3 2 2 2 2 2 1 1 2 3 1 2 1 1 2 1 1 0 1 1 1 1 2 2 1
3 3 4 4 4 4 5 4 4 5 5 6 8 9 9 8 7 6 5 5 4 4 4 3 3 3 2 2 1 1 1 1 3 2 2 1 1 1 1 1 1 1 1 1 1 1 1 0 1
3 2 3 3 4 4 5 4 3 5 6 8 8 8 8 7 7 6 5 5 5 4 4 4 4 4 3 3 2 1 1 1 1 2 2 1 1 1 1 1 1 1 1 1 1 0 0 0 0
3 3 4 3 3 3 3 4 4 6 7 7 8 7 7 6 6 6 5 5 5 5 4 4 4 4 3 3 2 2 2 2 1 1 2 1 0 1 0 0 0 1 1 0 1 0 1 1 1
5 5 3 3 2 2 5 2 6 6 7 7 7 7 7 6 6 5 5 5 5 4 5 4 3 4 3 2 2 1 1 2 1 2 2 1 0 0 1 1 1 1 1 1 1 1 1 0 1
6 3 1 3 2 2 4 1 5 6 6 6 6 7 6 6 6 5 5 5 5 5 4 4 4 3 3 3 2 2 2 2 1 1 1 1 1 1 2 1 1 2 1 1 2 1 1 1 1
2 3 1 1 3 3 3 2 4 5 5 5 6 6 6 6 7 6 5 5 5 5 5 4 4 3 3 3 2 2 2 2 2 1 1 1 2 2 3 2 1 2 1 1 1 1 2 2 2
5 5 3 0 1 3 4 3 3 5 6 5 6 6 6 6 6 6 6 6 6 6 5 5 4 4 3 2 3 2 2 2 2 2 2 2 2 2 3 3 2 2 2 2 2 2 2 2 2
6 6 3 2 2 4 3 3 3 4 5 4 5 5 6 6 6 7 6 6 6 6 6 5 5 4 4 3 2 2 2 2 2 2 2 3 2 3 3 2 3 2 2 2 2 2 2 2 2
7 6 4 3 3 5 4 5 5 5 5 5 5 5 6 6 7 7 7 7 6 6 6 5 5 5 4 4 3 2 2 3 3 3 2 2 3 3 3 3 3 3 3 2 3 3 4 3 2
6 3 4 5 7 3 5 4 4 5 5 5 6 6 7 6 7 7 7 7 7 6 6 6 5 5 5 5 3 4 3 3 2 2 2 2 3 3 3 3 3 4 3 3 4 3 3 4 3
3 1 4 6 7 7 5 7 3 5 4 4 5 5 6 6 7 7 6 6 6 6 6 6 5 5 5 4 4 4 4 3 2 2 2 3 3 3 3 3 3 4 4 3 4 3 4 4 4
3 5 6 8 8 8 5 7 2 2 2 1 3 3 4 5 6 6 6 5 5 5 5 6 5 5 5 5 4 5 4 4 3 3 3 4 3 3 3 3 3 4 3 3 3 4 4 4 4
8 8 6 7 7 4 3 6 1 3 1 0 0 1 3 5 6 6 6 6 5 5 5 5 5 5 5 5 5 5 5 5 5 5 4 4 3 2 2 3 3 3 3 4 4 4 4 4 4
9 10 8 7 6 3 6 5 2 4 2 1 1 2 2 4 4 6 6 6 6 6 5 5 5 5 5 5 5 4 5 4 4 4 4 4 3 2 2 3 3 4 4 4 3 4 4 3 4
7 8 8 10 9 8 4 3 3 3 2 1 2 3 3 3 3 4 5 6 6 6 5 5 4 4 4 4 4 4 4 4 4 4 4 3 3 2 3 3 3 4 4 4 4 3 4 3 4
7 6 6 9 8 9 6 6 2 3 2 3 2 2 3 3 3 3 4 4 5 5 5 5 4 4 3 3 3 3 4 4 4 3 3 3 3 2 2 3 3 3 3 3 4 3 3 3 3
6 7 7 8 8 9 8 1 4 1 2 2 2 2 2 2 2 3 3 3 4 4 5 5 4 4 3 3 3 3 3 4 4 3 3 3 3 3 3 3 3 3 2 2 3 3 3 3 3
6 6 8 8 7 8 9 1 4 1 1 2 2 2 2 2 2 2 2 3 3 4 4 5 4 4 3 3 3 3 3 3 4 3 3 3 3 3 3 3 3 3 3 2 3 3 3 3 3
Wind_Direction
187 187 207 232 227 108 68 64 62 67 65 60 64 62 59 44 34 67 87 95 95 105 111 116 107 109 114 115 115 119 120 121 121 120 123 124 125 130 133 136 140 142 140 142 142 142 142 139 138
177 185 227 239 284 81 71 64 66 64 77 90 81 74 73 67 61 91 106 105 112 110 112 110 110 112 113 113 115 116 116 119 118 116 120 124 125 128 130 132 137 139 139 141 146 146 146 145 144
186 224 259 253 56 58 65 66 75 83 87 91 86 61 54 64 79 93 103 119 118 109 107 104 113 113 112 112 114 114 113 114 114 113 114 122 124 124 122 123 128 133 136 141 147 149 149 150 149
216 223 232 82 72 61 63 72 83 95 88 75 88 83 74 56 70 96 112 123 115 112 112 105 108 112 113 113 115 117 115 112 111 111 111 112 112 114 115 119 116 121 132 137 147 151 152 155 157
240 253 142 86 75 73 72 70 80 82 85 85 89 91 83 73 91 106 116 118 115 113 111 110 108 111 113 113 114 116 115 111 110 111 109 104 99 99 104 108 103 103 122 130 142 151 163 165 166
244 241 79 80 83 82 81 78 82 84 90 92 96 95 87 101 111 115 116 117 113 113 110 112 116 116 116 113 113 113 111 109 112 110 107 102 97 91 91 100 104 103 110 120 128 146 159 163 166
298 34 68 78 88 85 78 78 77 87 88 83 93 97 107 115 118 121 116 113 112 111 115 120 128 130 127 116 112 112 108 108 107 107 106 107 104 97 94 93 96 102 109 111 108 124 155 163 176
302 303 80 75 81 83 91 92 78 75 82 87 91 102 118 130 133 128 121 117 110 108 113 119 121 116 123 125 116 107 105 106 107 106 103 114 128 127 122 130 99 90 99 102 101 94 129 174 182
261 1 67 59 68 86 101 105 93 92 102 100 79 80 111 134 141 138 132 127 121 118 120 120 121 119 116 111 115 124 122 116 130 124 131 181 155 125 147 87 89 92 94 90 80 71 87 220 183
267 50 56 44 55 86 94 99 119 130 116 110 107 104 122 140 148 147 140 138 134 131 127 120 124 125 125 116 114 117 114 110 94 72 103 107 81 53 53 102 117 134 141 167 148 228 219 227 183
41 52 60 60 63 81 101 106 117 127 107 113 131 135 141 147 153 152 145 142 137 133 131 132 130 123 121 118 113 102 91 95 97 86 77 72 67 76 65 97 155 175 199 200 163 206 201 116 81
77 56 51 64 73 89 98 107 102 75 77 104 130 140 147 153 156 158 149 142 137 136 137 134 135 128 103 93 110 121 108 105 94 93 76 80 61 45 49 21 23 5 81 60 24 41 61 57 73
104 72 61 69 89 99 103 102 100 91 97 112 126 140 148 152 153 152 147 147 150 153 151 141 141 135 135 133 147 115 108 100 109 97 91 76 93 58 57 45 6 345 37 146 120 55 74 72 176
76 85 97 110 113 117 112 110 125 104 123 125 132 142 146 148 150 151 157 161 164 166 168 157 161 153 156 160 157 147 150 135 123 119 99 69 68 58 23 71 357 356 355 21 12 94 149 229 30
153 156 140 134 140 134 157 129 118 130 141 139 140 144 146 150 155 159 163 170 170 170 170 164 168 160 163 174 181 169 168 159 154 135 131 145 134 93 321 5 280 24 22 81 234 189 212 207 200
209 213 170 135 169 168 246 113 110 138 156 152 150 151 157 160 165 164 168 171 167 171 169 176 176 164 164 170 198 183 177 174 173 170 161 167 231 253 276 294 340 341 282 263 250 241 227 196 241
213 241 177 154 184 220 247 125 132 160 170 165 166 165 168 167 173 171 177 177 172 177 175 176 183 178 174 166 181 194 174 187 194 181 185 176 220 245 265 288 339 276 278 284 288 317 282 249 245
281 291 271 212 165 227 241 191 152 173 187 179 175 175 177 180 180 178 183 179 176 174 178 181 182 177 181 177 182 195 191 192 192 188 176 222 234 247 273 258 263 279 279 290 316 311 288 272 257
287 287 288 304 150 242 241 225 182 181 195 191 185 182 183 187 178 176 181 178 176 175 175 181 188 177 184 185 197 197 199 209 205 199 192 221 249 259 269 287 267 271 275 283 271 261 248 255 247
251 259 236 190 195 258 243 232 185 184 200 201 195 188 191 187 178 178 184 182 182 177 179 182 187 185 195 190 207 213 216 222 215 232 200 235 246 257 251 264 267 269 265 257 261 260 269 265 252
244 255 256 250 228 220 244 205 177 177 190 199 202 198 197 196 189 183 187 190 188 185 187 188 189 186 196 199 203 193 197 224 214 214 211 233 246 254 272 267 272 277 267 257 262 260 257 262 258
250 242 240 231 242 224 252 270 176 180 187 197 201 201 203 197 195 190 191 193 194 190 185 186 185 186 191 200 211 210 217 231 239 243 228 220 230 247 252 256 263 269 272 270 263 265 269 265 263
277 231 226 240 258 261 234 268 171 178 201 195 192 200 204 199 195 190 191 189 192 188 183 181 181 186 187 198 202 219 229 237 238 240 229 245 235 246 254 254 258 260 263 265 276 284 276 267 274
193 205 213 227 243 249 248 263 251 165 216 179 159 177 193 195 189 187 183 175 179 179 181 178 177 187 188 195 203 216 229 242 251 244 239 236 233 235 242 254 263 263 268 263 260 263 258 269 279
220 236 239 231 229 239 181 250 289 74 60 5 117 140 173 179 182 179 175 171 174 179 182 179 177 188 194 199 208 214 226 232 235 242 234 249 248 238 239 259 257 265 264 264 263 259 272 263 264
229 252 270 281 282 251 188 240 107 101 88 85 98 109 124 150 167 172 175 175 180 184 183 179 177 187 197 206 215 221 227 234 236 236 251 242 254 258 260 256 254 259 262 263 258 258 258 264 267
237 245 275 278 272 272 239 207 174 153 165 143 110 111 121 137 151 169 173 178 182 185 186 184 179 187 201 211 212 217 227 241 245 237 240 246 251 248 243 251 256 262 263 263 259 261 266 265 261
269 265 252 259 269 270 251 238 229 165 174 153 135 121 117 128 145 157 169 175 181 182 178 177 177 185 195 207 219 203 216 225 236 244 246 258 261 268 264 261 260 261 260 258 259 255 257 263 265
214 227 252 261 271 277 276 280 63 136 161 184 160 138 131 138 140 142 149 166 181 177 171 173 176 183 187 198 216 222 213 218 220 228 238 241 248 252 254 255 258 260 264 264 265 268 260 260 265
248 246 244 255 256 265 280 298 92 110 157 163 146 132 130 134 130 121 128 153 169 172 172 174 182 190 196 194 197 212 219 219 223 223 230 231 236 243 243 247 249 257 261 260 260 263 265 265 266